sat.trackr.live / text

‹ back to catalog

R5-S2

NORAD 60207 · 2024-125E

PAYLOAD ACTIVE UNKNOWN

§ Identity

Operator
Country
US
Launch date
2024-07-04
Launch site
AFWTR
Launch vehicle
Mass (kg)
RCS (m²)

External: N2YO · Heavens-Above · Gunter

§ Orbital elements

Epoch: 2026-05-25T02:43:08.093568Z

Period
93.26 min
Inclination
97.2401°
Eccentricity
0.0014481
Mean motion
15.44111617 rev/d
Perigee alt
424.1 km
Apogee alt
443.9 km
Semi-major
6,812.1 km
B*
3.4439e-4
RAAN
357.1450°
Arg perigee
317.9674°
Mean anomaly
42.0463°
Rev number
10,562

§ Raw data

R5-S21 60207U 24125E   26145.11328812  .00015740  00000+0  34439-3 0  99952 60207  97.2401 357.1450 0014481 317.9674  42.0463 15.44111617105624

JSON: /api/v1/satellites/60207 · /tle

For live sub-satellite position, see the globe view (requires WebGL).

§ Visibility from observer

Set your observer location to see the next 7 days of passes ≥ 10°. The values pass through the URL so the page stays shareable.

No JS? Fill the form by hand. The geolocation button needs JavaScript.

§ Radio — SatNOGS DB

ModeDescriptionDownlinkUplink
FM Mode L - Transmitter 1.621 GHz

1 transmitter · refreshed weekly from db.satnogs.org